Time,TemperatureF,DewpointF,PressureIn,WindDirection,WindDirectionDegrees,WindSpeedMPH,WindSpeedGustMPH,Humidity,HourlyPrecipIn,Conditions,Clouds,dailyrainin,SoftwareType,DateUTC
2013-02-22 00:00:00,22.7,15.3,30.32,N/A,-737280,0.0,0.0,73,0.00,,,0.00,Wunderground v.1.13,2013-02-22 05:00:00,
2013-02-22 00:05:00,22.7,15.3,30.32,N/A,-737280,0.0,0.0,73,0.00,,,0.00,Wunderground v.1.13,2013-02-22 05:05:00,
2013-02-22 00:10:00,22.8,15.4,30.33,N/A,-737280,0.0,0.0,73,0.00,,,0.00,Wunderground v.1.13,2013-02-22 05:10:00,
2013-02-22 00:15:00,22.8,15.8,30.33,N/A,-737280,0.0,0.0,74,0.00,,,0.00,Wunderground v.1.13,2013-02-22 05:15:00,
2013-02-22 00:20:00,22.9,15.5,30.32,N/A,-737280,0.0,0.0,73,0.00,,,0.00,Wunderground v.1.13,2013-02-22 05:20:00,
2013-02-22 00:25:00,22.9,15.5,30.32,N/A,-737280,0.0,0.0,73,0.00,,,0.00,Wunderground v.1.13,2013-02-22 05:25:00,
2013-02-22 00:30:00,22.9,15.5,30.32,N/A,-737280,0.0,0.0,73,0.00,,,0.00,Wunderground v.1.13,2013-02-22 05:30:00,
2013-02-22 00:35:00,22.9,15.5,30.31,N/A,-737280,0.0,0.0,73,0.00,,,0.00,Wunderground v.1.13,2013-02-22 05:35:00,
2013-02-22 00:40:00,22.9,15.8,30.31,N/A,-737280,0.0,0.0,74,0.00,,,0.00,Wunderground v.1.13,2013-02-22 05:40:00,
2013-02-22 00:45:00,23.0,15.9,30.33,N/A,-737280,0.0,0.0,74,0.00,,,0.00,Wunderground v.1.13,2013-02-22 05:45:00,
2013-02-22 00:50:00,23.0,15.9,30.33,N/A,-737280,0.0,0.0,74,0.00,,,0.00,Wunderground v.1.13,2013-02-22 05:50:00,
2013-02-22 00:55:00,23.0,15.9,30.33,N/A,-737280,0.0,0.0,74,0.00,,,0.00,Wunderground v.1.13,2013-02-22 05:55:00,
2013-02-22 01:00:00,23.1,16.0,30.33,N/A,-737280,0.0,0.0,74,0.00,,,0.00,Wunderground v.1.13,2013-02-22 06:00:00,
2013-02-22 01:05:00,23.1,16.0,30.32,N/A,-737280,0.0,0.0,74,0.00,,,0.00,Wunderground v.1.13,2013-02-22 06:05:00,
2013-02-22 01:10:00,23.0,15.9,30.32,N/A,-737280,0.0,0.0,74,0.00,,,0.00,Wunderground v.1.13,2013-02-22 06:10:00,
2013-02-22 01:15:00,23.0,15.9,30.31,SSW,203,0.0,1.0,74,0.00,,,0.00,Wunderground v.1.13,2013-02-22 06:15:00,
2013-02-22 01:20:00,23.0,15.6,30.30,SSW,203,0.0,1.0,73,0.00,,,0.00,Wunderground v.1.13,2013-02-22 06:20:00,
2013-02-22 01:25:00,23.0,15.6,30.28,SE,135,0.0,1.0,73,0.00,,,0.00,Wunderground v.1.13,2013-02-22 06:25:00,
2013-02-22 01:30:00,23.1,15.7,30.28,N/A,-737280,0.0,0.0,73,0.00,,,0.00,Wunderground v.1.13,2013-02-22 06:30:00,
2013-02-22 01:35:00,23.1,16.0,30.29,N/A,-737280,0.0,0.0,74,0.00,,,0.00,Wunderground v.1.13,2013-02-22 06:35:00,
2013-02-22 01:40:00,23.2,16.1,30.29,SE,135,0.0,1.0,74,0.00,,,0.00,Wunderground v.1.13,2013-02-22 06:40:00,
2013-02-22 01:45:00,23.2,16.1,30.30,N/A,-737280,0.0,0.0,74,0.00,,,0.00,Wunderground v.1.13,2013-02-22 06:45:00,
2013-02-22 01:50:00,22.9,15.5,30.32,SSW,205,0.0,4.0,73,0.00,,,0.00,Wunderground v.1.13,2013-02-22 06:50:00,
2013-02-22 02:00:00,22.9,15.5,30.31,SSW,205,0.0,0.0,73,0.00,,,0.00,Wunderground v.1.13,2013-02-22 07:00:00,
2013-02-22 02:05:00,22.9,15.8,30.31,SSW,205,0.0,0.0,74,0.00,,,0.00,Wunderground v.1.13,2013-02-22 07:05:00,
2013-02-22 02:15:00,23.0,15.9,30.33,SSW,205,0.0,0.0,74,0.00,,,0.00,Wunderground v.1.13,2013-02-22 07:15:00,
2013-02-22 02:20:00,23.0,15.9,30.33,SSW,205,0.0,0.0,74,0.00,,,0.00,Wunderground v.1.13,2013-02-22 07:20:00,
2013-02-22 02:25:00,23.1,16.0,30.33,SSW,205,0.0,0.0,74,0.00,,,0.00,Wunderground v.1.13,2013-02-22 07:25:00,
2013-02-22 02:35:00,23.0,15.9,30.32,SSW,205,0.0,0.0,74,0.00,,,0.00,Wunderground v.1.13,2013-02-22 07:35:00,
2013-02-22 02:45:00,23.0,17.7,30.30,SSW,205,0.0,1.0,80,0.00,,,0.00,Wunderground v.1.13,2013-02-22 07:45:00,
2013-02-22 02:55:00,23.1,15.7,30.28,SE,126,0.0,1.0,73,0.00,,,0.00,Wunderground v.1.13,2013-02-22 07:55:00,
2013-02-22 03:05:00,23.2,16.1,30.29,SE,126,0.0,0.0,74,0.00,,,0.00,Wunderground v.1.13,2013-02-22 08:05:00,
2013-02-22 03:15:00,23.3,16.2,30.29,SE,126,0.0,0.0,74,0.00,,,0.00,Wunderground v.1.13,2013-02-22 08:15:00,
2013-02-22 03:25:00,23.3,15.9,30.28,SSW,201,0.0,1.0,73,0.00,,,0.00,Wunderground v.1.13,2013-02-22 08:25:00,
2013-02-22 03:30:00,23.4,16.0,30.26,SSW,201,0.0,3.0,73,0.00,,,0.00,Wunderground v.1.13,2013-02-22 08:30:00,
2013-02-22 03:35:00,23.4,16.0,30.27,SSW,201,0.0,2.0,73,0.00,,,0.00,Wunderground v.1.13,2013-02-22 08:35:00,
2013-02-22 03:40:00,23.5,16.1,30.27,SSW,200,0.0,1.0,73,0.00,,,0.00,Wunderground v.1.13,2013-02-22 08:40:00,
2013-02-22 03:50:00,23.6,16.2,30.25,ENE,69,0.0,2.0,73,0.00,,,0.00,Wunderground v.1.13,2013-02-22 08:50:00,
2013-02-22 04:00:00,23.9,16.5,30.25,South,175,0.0,2.0,73,0.00,,,0.00,Wunderground v.1.13,2013-02-22 09:00:00,
2013-02-22 04:05:00,24.0,16.6,30.25,SSE,149,0.0,2.0,73,0.00,,,0.00,Wunderground v.1.13,2013-02-22 09:05:00,
2013-02-22 04:15:00,24.1,16.7,30.24,WSW,244,0.0,2.0,73,0.00,,,0.00,Wunderground v.1.13,2013-02-22 09:15:00,
2013-02-22 04:25:00,24.3,16.6,30.23,SE,132,1.0,1.0,72,0.00,,,0.00,Wunderground v.1.13,2013-02-22 09:25:00,
2013-02-22 04:30:00,24.4,16.7,30.23,SE,146,1.0,1.0,72,0.00,,,0.00,Wunderground v.1.13,2013-02-22 09:30:00,
2013-02-22 04:35:00,24.5,16.8,30.23,ESE,121,1.0,7.0,72,0.00,,,0.00,Wunderground v.1.13,2013-02-22 09:35:00,
2013-02-22 04:45:00,24.7,16.6,30.23,SE,134,1.0,1.0,71,0.00,,,0.00,Wunderground v.1.13,2013-02-22 09:45:00,
2013-02-22 04:50:00,24.8,16.7,30.23,North,5,1.0,4.0,71,0.00,,,0.00,Wunderground v.1.13,2013-02-22 09:50:00,
2013-02-22 04:55:00,24.9,16.8,30.23,ESE,105,1.0,3.0,71,0.00,,,0.00,Wunderground v.1.13,2013-02-22 09:55:00,
2013-02-22 05:00:00,25.2,17.1,30.23,ESE,122,1.0,1.0,71,0.00,,,0.00,Wunderground v.1.13,2013-02-22 10:00:00,
2013-02-22 05:05:00,25.3,17.2,30.23,SW,232,1.0,1.0,71,0.00,,,0.00,Wunderground v.1.13,2013-02-22 10:05:00,
2013-02-22 05:15:00,25.6,17.2,30.24,SE,137,1.0,1.0,70,0.00,,,0.00,Wunderground v.1.13,2013-02-22 10:15:00,
2013-02-22 05:20:00,25.7,17.6,30.24,WSW,238,1.0,4.0,71,0.00,,,0.00,Wunderground v.1.13,2013-02-22 10:20:00,
2013-02-22 05:30:00,26.0,17.9,30.25,WSW,238,0.0,1.0,71,0.00,,,0.00,Wunderground v.1.13,2013-02-22 10:30:00,
2013-02-22 05:35:00,26.0,18.2,30.25,WSW,238,0.0,3.0,72,0.00,,,0.00,Wunderground v.1.13,2013-02-22 10:35:00,
2013-02-22 05:45:00,26.0,18.2,30.23,WSW,238,0.0,1.0,72,0.00,,,0.00,Wunderground v.1.13,2013-02-22 10:45:00,
2013-02-22 05:50:00,26.1,18.0,30.22,WSW,244,0.0,1.0,71,0.00,,,0.00,Wunderground v.1.13,2013-02-22 10:50:00,
2013-02-22 05:55:00,26.5,18.0,30.22,SSE,150,1.0,1.0,70,0.00,,,0.00,Wunderground v.1.13,2013-02-22 10:55:00,
2013-02-22 06:00:00,26.8,18.3,30.22,NE,50,1.0,1.0,70,0.00,,,0.00,Wunderground v.1.13,2013-02-22 11:00:00,
2013-02-22 06:05:00,27.1,18.3,30.21,ESE,111,1.0,3.0,69,0.00,,,0.00,Wunderground v.1.13,2013-02-22 11:05:00,
2013-02-22 06:15:00,28.0,18.8,30.20,ESE,122,2.0,7.0,68,0.00,,,0.00,Wunderground v.1.13,2013-02-22 11:15:00,
2013-02-22 06:25:00,28.4,18.8,30.17,North,5,2.0,7.0,67,0.00,,,0.00,Wunderground v.1.13,2013-02-22 11:25:00,
2013-02-22 06:30:00,28.5,18.6,30.18,SE,130,2.0,2.0,66,0.00,,,0.00,Wunderground v.1.13,2013-02-22 11:30:00,
2013-02-22 06:35:00,28.7,18.8,30.18,ESE,117,2.0,2.0,66,0.00,,,0.00,Wunderground v.1.13,2013-02-22 11:35:00,
2013-02-22 06:40:00,28.8,18.9,30.17,SSE,159,1.0,9.0,66,0.00,,,0.00,Wunderground v.1.13,2013-02-22 11:40:00,
2013-02-22 06:50:00,29.1,19.2,30.17,East,81,1.0,1.0,66,0.00,,,0.00,Wunderground v.1.13,2013-02-22 11:50:00,
2013-02-22 07:00:00,29.6,19.3,30.16,ESE,110,1.0,1.0,65,0.00,,,0.00,Wunderground v.1.13,2013-02-22 12:00:00,
2013-02-22 07:05:00,29.9,19.2,30.16,ESE,106,1.0,1.0,64,0.00,,,0.00,Wunderground v.1.13,2013-02-22 12:05:00,
2013-02-22 07:15:00,30.5,19.4,30.15,ENE,65,1.0,4.0,63,0.00,,,0.00,Wunderground v.1.13,2013-02-22 12:15:00,
2013-02-22 07:25:00,31.4,19.1,30.15,SE,145,2.0,2.0,60,0.00,,,0.00,Wunderground v.1.13,2013-02-22 12:25:00,
2013-02-22 07:35:00,32.1,19.4,30.14,SE,126,1.0,5.0,59,0.00,,,0.00,Wunderground v.1.13,2013-02-22 12:35:00,
2013-02-22 07:45:00,32.5,19.7,30.14,NE,51,2.0,6.0,59,0.00,,,0.00,Wunderground v.1.13,2013-02-22 12:45:00,
2013-02-22 07:50:00,32.7,19.9,30.13,NE,52,2.0,7.0,59,0.00,,,0.00,Wunderground v.1.13,2013-02-22 12:50:00,
2013-02-22 08:00:00,33.1,20.3,30.14,NE,46,2.0,7.0,59,0.00,,,0.00,Wunderground v.1.13,2013-02-22 13:00:00,
2013-02-22 08:05:00,33.3,20.5,30.14,SE,126,2.0,2.0,59,0.00,,,0.00,Wunderground v.1.13,2013-02-22 13:05:00,
2013-02-22 08:15:00,33.4,20.6,30.14,NE,38,1.0,1.0,59,0.00,,,0.00,Wunderground v.1.13,2013-02-22 13:15:00,
2013-02-22 08:20:00,33.5,20.7,30.14,ESE,108,1.0,7.0,59,0.00,,,0.00,Wunderground v.1.13,2013-02-22 13:20:00,
2013-02-22 08:25:00,33.6,21.2,30.13,South,169,1.0,5.0,60,0.00,,,0.00,Wunderground v.1.13,2013-02-22 13:25:00,
2013-02-22 08:35:00,33.9,21.5,30.13,ENE,67,2.0,2.0,60,0.00,,,0.00,Wunderground v.1.13,2013-02-22 13:35:00,
2013-02-22 08:40:00,34.0,21.6,30.13,SSW,194,2.0,2.0,60,0.00,,,0.00,Wunderground v.1.13,2013-02-22 13:40:00,
2013-02-22 08:50:00,34.4,21.9,30.12,SSE,163,3.0,3.0,60,0.00,,,0.00,Wunderground v.1.13,2013-02-22 13:50:00,
2013-02-22 08:55:00,34.4,21.9,30.13,SSE,157,3.0,3.0,60,0.00,,,0.00,Wunderground v.1.13,2013-02-22 13:55:00,
2013-02-22 09:00:00,34.4,21.9,30.12,East,98,2.0,9.0,60,0.00,,,0.00,Wunderground v.1.13,2013-02-22 14:00:00,
2013-02-22 09:05:00,34.4,22.7,30.12,SE,124,2.0,7.0,62,0.00,,,0.00,Wunderground v.1.13,2013-02-22 14:05:00,
2013-02-22 09:15:00,34.4,23.1,30.11,East,98,2.0,2.0,63,0.00,,,0.00,Wunderground v.1.13,2013-02-22 14:15:00,
2013-02-22 09:20:00,34.4,23.1,30.11,SSE,167,1.0,1.0,63,0.00,,,0.00,Wunderground v.1.13,2013-02-22 14:20:00,
2013-02-22 09:30:00,34.6,23.7,30.11,East,84,3.0,3.0,64,0.00,,,0.00,Wunderground v.1.13,2013-02-22 14:30:00,
2013-02-22 09:35:00,34.7,23.4,30.11,East,97,2.0,2.0,63,0.00,,,0.00,Wunderground v.1.13,2013-02-22 14:35:00,
2013-02-22 09:40:00,34.7,23.8,30.11,East,79,1.0,7.0,64,0.00,,,0.00,Wunderground v.1.13,2013-02-22 14:40:00,
2013-02-22 09:45:00,34.6,23.7,30.11,SE,132,2.0,2.0,64,0.00,,,0.00,Wunderground v.1.13,2013-02-22 14:45:00,
2013-02-22 09:50:00,34.6,23.7,30.11,NNE,22,1.0,1.0,64,0.00,,,0.00,Wunderground v.1.13,2013-02-22 14:50:00,
2013-02-22 09:55:00,34.4,24.9,30.11,ENE,68,2.0,2.0,68,0.00,,,0.00,Wunderground v.1.13,2013-02-22 14:55:00,
2013-02-22 10:05:00,33.7,25.6,30.11,South,173,2.0,2.0,72,0.00,,,0.00,Wunderground v.1.13,2013-02-22 15:05:00,
2013-02-22 10:15:00,33.0,25.9,30.11,ENE,58,1.0,4.0,75,0.00,,,0.00,Wunderground v.1.13,2013-02-22 15:15:00,
2013-02-22 10:20:00,32.8,26.1,30.11,NE,45,1.0,1.0,76,0.00,,,0.00,Wunderground v.1.13,2013-02-22 15:20:00,
2013-02-22 10:25:00,32.6,26.2,30.11,East,96,1.0,5.0,77,0.00,,,0.00,Wunderground v.1.13,2013-02-22 15:25:00,
2013-02-22 10:35:00,32.5,26.4,30.11,East,81,1.0,1.0,78,0.00,,,0.00,Wunderground v.1.13,2013-02-22 15:35:00,
2013-02-22 10:45:00,32.5,26.4,30.11,ENE,73,1.0,4.0,78,0.00,,,0.00,Wunderground v.1.13,2013-02-22 15:45:00,
2013-02-22 10:55:00,32.4,26.9,30.11,SSW,206,1.0,5.0,80,0.00,,,0.00,Wunderground v.1.13,2013-02-22 15:55:00,
2013-02-22 11:05:00,32.4,27.5,30.11,SSE,153,0.0,3.0,82,0.00,,,0.00,Wunderground v.1.13,2013-02-22 16:05:00,
2013-02-22 11:15:00,32.3,27.7,30.11,ESE,102,1.0,1.0,83,0.00,,,0.00,Wunderground v.1.13,2013-02-22 16:15:00,
2013-02-22 11:25:00,32.3,28.0,30.11,East,84,0.0,4.0,84,0.00,,,0.00,Wunderground v.1.13,2013-02-22 16:25:00,
2013-02-22 11:30:00,32.3,28.0,30.11,ENE,77,0.0,3.0,84,0.00,,,0.00,Wunderground v.1.13,2013-02-22 16:30:00,
2013-02-22 11:40:00,32.3,28.3,30.10,SE,133,1.0,1.0,85,0.00,,,0.00,Wunderground v.1.13,2013-02-22 16:40:00,
2013-02-22 11:50:00,32.3,28.6,30.10,SE,142,1.0,1.0,86,0.00,,,0.00,Wunderground v.1.13,2013-02-22 16:50:00,
2013-02-22 11:55:00,32.3,28.6,30.10,SE,136,1.0,4.0,86,0.00,,,0.00,Wunderground v.1.13,2013-02-22 16:55:00,
2013-02-22 12:05:00,32.4,29.0,30.10,ENE,65,0.0,2.0,87,0.00,,,0.00,Wunderground v.1.13,2013-02-22 17:05:00,
2013-02-22 12:15:00,32.5,29.1,30.09,East,90,0.0,2.0,87,0.00,,,0.00,Wunderground v.1.13,2013-02-22 17:15:00,
2013-02-22 12:20:00,32.5,29.3,30.09,SE,144,0.0,3.0,88,0.00,,,0.00,Wunderground v.1.13,2013-02-22 17:20:00,
2013-02-22 12:30:00,32.6,29.4,30.09,South,178,0.0,3.0,88,0.00,,,0.00,Wunderground v.1.13,2013-02-22 17:30:00,
2013-02-22 12:40:00,32.8,29.9,30.09,NE,52,1.0,1.0,89,0.00,,,0.00,Wunderground v.1.13,2013-02-22 17:40:00,
2013-02-22 12:50:00,33.0,30.1,30.08,East,88,1.0,3.0,89,0.00,,,0.00,Wunderground v.1.13,2013-02-22 17:50:00,
2013-02-22 12:55:00,33.2,30.3,30.08,ENE,74,0.0,3.0,89,0.00,,,0.00,Wunderground v.1.13,2013-02-22 17:55:00,
2013-02-22 13:00:00,33.3,30.4,30.08,NE,41,0.0,3.0,89,0.00,,,0.00,Wunderground v.1.13,2013-02-22 18:00:00,
2013-02-22 13:05:00,33.4,30.5,30.08,ENE,57,0.0,3.0,89,0.00,,,0.00,Wunderground v.1.13,2013-02-22 18:05:00,
2013-02-22 13:15:00,33.6,30.7,30.07,East,82,1.0,3.0,89,0.00,,,0.00,Wunderground v.1.13,2013-02-22 18:15:00,
2013-02-22 13:25:00,33.9,31.0,30.07,ESE,107,1.0,1.0,89,0.00,,,0.00,Wunderground v.1.13,2013-02-22 18:25:00,
2013-02-22 13:35:00,34.2,31.3,30.06,ESE,116,1.0,4.0,89,0.00,,,0.00,Wunderground v.1.13,2013-02-22 18:35:00,
2013-02-22 13:45:00,34.5,31.6,30.06,SE,136,1.0,6.0,89,0.00,,,0.00,Wunderground v.1.13,2013-02-22 18:45:00,
2013-02-22 13:55:00,34.7,31.5,30.06,ENE,57,1.0,2.0,88,0.00,,,0.00,Wunderground v.1.13,2013-02-22 18:55:00,
2013-02-22 14:05:00,35.0,31.8,30.06,NE,53,0.0,2.0,88,0.00,,,0.00,Wunderground v.1.13,2013-02-22 19:05:00,
2013-02-22 14:15:00,35.3,32.1,30.05,South,178,1.0,1.0,88,0.00,,,0.00,Wunderground v.1.13,2013-02-22 19:15:00,
2013-02-22 14:25:00,35.7,32.2,30.05,SSE,156,1.0,3.0,87,0.00,,,0.00,Wunderground v.1.13,2013-02-22 19:25:00,
2013-02-22 14:35:00,36.1,32.6,30.05,SW,225,1.0,5.0,87,0.00,,,0.00,Wunderground v.1.13,2013-02-22 19:35:00,
2013-02-22 14:45:00,36.4,32.6,30.05,NE,40,1.0,1.0,86,0.00,,,0.00,Wunderground v.1.13,2013-02-22 19:45:00,
2013-02-22 14:55:00,36.6,32.8,30.04,NE,41,0.0,3.0,86,0.00,,,0.00,Wunderground v.1.13,2013-02-22 19:55:00,
2013-02-22 15:00:00,36.8,32.7,30.04,SE,146,1.0,1.0,85,0.00,,,0.00,Wunderground v.1.13,2013-02-22 20:00:00,
2013-02-22 15:05:00,37.1,33.3,30.04,NE,41,1.0,1.0,86,0.00,,,0.00,Wunderground v.1.13,2013-02-22 20:05:00,
2013-02-22 15:15:00,37.5,33.4,30.04,East,83,0.0,3.0,85,0.00,,,0.00,Wunderground v.1.13,2013-02-22 20:15:00,
2013-02-22 15:20:00,37.6,33.5,30.04,East,98,0.0,2.0,85,0.00,,,0.00,Wunderground v.1.13,2013-02-22 20:20:00,
2013-02-22 15:30:00,37.9,33.5,30.04,NE,36,0.0,1.0,84,0.00,,,0.00,Wunderground v.1.13,2013-02-22 20:30:00,
2013-02-22 15:35:00,38.0,33.6,30.04,NE,41,0.0,2.0,84,0.00,,,0.00,Wunderground v.1.13,2013-02-22 20:35:00,
2013-02-22 15:45:00,38.3,33.9,30.04,ENE,63,0.0,2.0,84,0.00,,,0.00,Wunderground v.1.13,2013-02-22 20:45:00,
2013-02-22 15:50:00,38.3,33.9,30.04,NE,49,0.0,1.0,84,0.00,,,0.00,Wunderground v.1.13,2013-02-22 20:50:00,
2013-02-22 15:55:00,38.5,33.8,30.03,ENE,59,0.0,2.0,83,0.00,,,0.00,Wunderground v.1.13,2013-02-22 20:55:00,
2013-02-22 16:05:00,38.8,34.1,30.03,SW,214,1.0,3.0,83,0.00,,,0.00,Wunderground v.1.13,2013-02-22 21:05:00,
2013-02-22 16:15:00,39.0,34.0,30.03,WSW,249,1.0,1.0,82,0.00,,,0.00,Wunderground v.1.13,2013-02-22 21:15:00,
2013-02-22 16:25:00,39.1,34.1,30.03,South,186,0.0,2.0,82,0.00,,,0.00,Wunderground v.1.13,2013-02-22 21:25:00,
2013-02-22 16:35:00,39.1,34.1,30.02,ENE,57,0.0,3.0,82,0.00,,,0.00,Wunderground v.1.13,2013-02-22 21:35:00,
2013-02-22 16:45:00,39.2,33.9,30.02,WSW,239,0.0,3.0,81,0.00,,,0.00,Wunderground v.1.13,2013-02-22 21:45:00,
2013-02-22 16:50:00,39.2,33.9,30.02,WSW,239,0.0,2.0,81,0.00,,,0.00,Wunderground v.1.13,2013-02-22 21:50:00,
2013-02-22 16:55:00,39.2,33.9,30.02,South,175,0.0,1.0,81,0.00,,,0.00,Wunderground v.1.13,2013-02-22 21:55:00,
2013-02-22 17:00:00,39.2,33.9,30.02,NE,52,0.0,2.0,81,0.00,,,0.00,Wunderground v.1.13,2013-02-22 22:00:00,
2013-02-22 17:05:00,39.2,33.9,30.02,NE,53,0.0,3.0,81,0.00,,,0.00,Wunderground v.1.13,2013-02-22 22:05:00,
2013-02-22 17:15:00,39.1,34.1,30.02,NNW,327,1.0,1.0,82,0.00,,,0.00,Wunderground v.1.13,2013-02-22 22:15:00,
2013-02-22 17:20:00,39.2,33.9,30.02,NE,43,1.0,1.0,81,0.00,,,0.00,Wunderground v.1.13,2013-02-22 22:20:00,
2013-02-22 17:30:00,39.2,33.9,30.03,NE,56,0.0,2.0,81,0.00,,,0.00,Wunderground v.1.13,2013-02-22 22:30:00,
2013-02-22 17:35:00,39.3,34.0,30.03,ENE,63,0.0,2.0,81,0.00,,,0.00,Wunderground v.1.13,2013-02-22 22:35:00,
2013-02-22 17:40:00,39.2,33.9,30.02,ENE,63,0.0,3.0,81,0.00,,,0.00,Wunderground v.1.13,2013-02-22 22:40:00,
2013-02-22 17:50:00,39.1,33.8,30.03,ENE,63,0.0,1.0,81,0.00,,,0.00,Wunderground v.1.13,2013-02-22 22:50:00,
2013-02-22 18:00:00,38.9,33.9,30.02,ENE,65,0.0,2.0,82,0.00,,,0.00,Wunderground v.1.13,2013-02-22 23:00:00,
2013-02-22 18:05:00,38.8,33.8,30.03,ENE,65,0.0,1.0,82,0.00,,,0.00,Wunderground v.1.13,2013-02-22 23:05:00,
2013-02-22 18:15:00,38.8,33.8,30.03,ENE,65,0.0,1.0,82,0.00,,,0.00,Wunderground v.1.13,2013-02-22 23:15:00,
2013-02-22 18:25:00,38.8,33.5,30.02,East,83,0.0,2.0,81,0.00,,,0.00,Wunderground v.1.13,2013-02-22 23:25:00,
2013-02-22 18:30:00,38.7,33.4,30.02,East,83,0.0,3.0,81,0.00,,,0.00,Wunderground v.1.13,2013-02-22 23:30:00,
2013-02-22 18:35:00,38.6,33.6,30.02,East,82,0.0,1.0,82,0.00,,,0.00,Wunderground v.1.13,2013-02-22 23:35:00,
2013-02-22 18:40:00,38.6,33.6,30.02,East,82,0.0,1.0,82,0.00,,,0.00,Wunderground v.1.13,2013-02-22 23:40:00,
2013-02-22 18:45:00,38.6,33.6,30.03,SSE,159,0.0,1.0,82,0.00,,,0.00,Wunderground v.1.13,2013-02-22 23:45:00,
2013-02-22 18:55:00,38.9,33.6,30.02,SSE,148,1.0,1.0,81,0.00,,,0.00,Wunderground v.1.13,2013-02-22 23:55:00,
2013-02-22 19:05:00,38.8,33.5,30.03,SSE,161,0.0,2.0,81,0.00,,,0.00,Wunderground v.1.13,2013-02-23 00:05:00,
2013-02-22 19:15:00,38.7,33.4,30.03,SSE,161,0.0,2.0,81,0.00,,,0.00,Wunderground v.1.13,2013-02-23 00:15:00,
2013-02-22 19:25:00,38.5,33.5,30.03,NE,44,0.0,2.0,82,0.00,,,0.00,Wunderground v.1.13,2013-02-23 00:25:00,
2013-02-22 19:35:00,38.2,33.2,30.03,NE,45,1.0,1.0,82,0.00,,,0.00,Wunderground v.1.13,2013-02-23 00:35:00,
2013-02-22 19:40:00,37.9,32.9,30.03,NE,45,0.0,0.0,82,0.00,,,0.00,Wunderground v.1.13,2013-02-23 00:40:00,
2013-02-22 19:45:00,37.7,32.7,30.03,NE,45,0.0,0.0,82,0.00,,,0.00,Wunderground v.1.13,2013-02-23 00:45:00,
2013-02-22 19:55:00,37.3,32.6,30.03,NE,45,0.0,0.0,83,0.00,,,0.00,Wunderground v.1.13,2013-02-23 00:55:00,
2013-02-22 20:05:00,36.8,32.1,30.03,NE,45,0.0,0.0,83,0.00,,,0.00,Wunderground v.1.13,2013-02-23 01:05:00,
2013-02-22 20:15:00,36.6,32.2,30.04,NE,45,0.0,0.0,84,0.00,,,0.00,Wunderground v.1.13,2013-02-23 01:15:00,
2013-02-22 20:25:00,36.4,32.0,30.04,NE,45,0.0,0.0,84,0.00,,,0.00,Wunderground v.1.13,2013-02-23 01:25:00,
2013-02-22 20:30:00,36.3,32.2,30.04,NE,45,0.0,0.0,85,0.00,,,0.00,Wunderground v.1.13,2013-02-23 01:30:00,
2013-02-22 20:35:00,36.2,32.1,30.04,NE,45,0.0,0.0,85,0.00,,,0.00,Wunderground v.1.13,2013-02-23 01:35:00,
2013-02-22 20:45:00,36.0,31.9,30.05,NE,45,0.0,0.0,85,0.00,,,0.00,Wunderground v.1.13,2013-02-23 01:45:00,
2013-02-22 20:55:00,35.9,31.8,30.05,NE,45,0.0,0.0,85,0.00,,,0.00,Wunderground v.1.13,2013-02-23 01:55:00,
2013-02-22 21:05:00,35.8,31.7,30.04,NE,45,0.0,0.0,85,0.00,,,0.00,Wunderground v.1.13,2013-02-23 02:05:00,
2013-02-22 21:15:00,35.8,31.7,30.05,WSW,248,1.0,2.0,85,0.00,,,0.00,Wunderground v.1.13,2013-02-23 02:15:00,
2013-02-22 21:25:00,35.8,31.7,30.05,South,178,1.0,1.0,85,0.00,,,0.00,Wunderground v.1.13,2013-02-23 02:25:00,
2013-02-22 21:35:00,35.7,31.6,30.04,South,178,0.0,0.0,85,0.00,,,0.00,Wunderground v.1.13,2013-02-23 02:35:00,
2013-02-22 21:45:00,35.4,31.3,30.05,South,178,0.0,0.0,85,0.00,,,0.00,Wunderground v.1.13,2013-02-23 02:45:00,
2013-02-22 21:55:00,35.2,31.1,30.04,South,173,0.0,2.0,85,0.00,,,0.00,Wunderground v.1.13,2013-02-23 02:55:00,
2013-02-22 22:00:00,35.2,31.1,30.04,South,173,0.0,1.0,85,0.00,,,0.00,Wunderground v.1.13,2013-02-23 03:00:00,
2013-02-22 22:05:00,35.1,31.0,30.04,South,173,0.0,0.0,85,0.00,,,0.00,Wunderground v.1.13,2013-02-23 03:05:00,
2013-02-22 22:15:00,35.1,31.0,30.05,South,173,0.0,0.0,85,0.00,,,0.00,Wunderground v.1.13,2013-02-23 03:15:00,
2013-02-22 22:20:00,35.0,30.9,30.04,South,173,0.0,0.0,85,0.00,,,0.00,Wunderground v.1.13,2013-02-23 03:20:00,
2013-02-22 22:30:00,34.9,30.8,30.04,South,173,0.0,0.0,85,0.00,,,0.00,Wunderground v.1.13,2013-02-23 03:30:00,
2013-02-22 22:35:00,34.9,30.8,30.04,South,173,0.0,0.0,85,0.00,,,0.00,Wunderground v.1.13,2013-02-23 03:35:00,
2013-02-22 22:45:00,34.8,30.8,30.04,South,173,0.0,0.0,85,0.00,,,0.00,Wunderground v.1.13,2013-02-23 03:45:00,
2013-02-22 22:55:00,34.8,30.8,30.03,South,173,0.0,1.0,85,0.00,,,0.00,Wunderground v.1.13,2013-02-23 03:55:00,
2013-02-22 23:05:00,34.8,30.8,30.04,South,173,0.0,0.0,85,0.00,,,0.00,Wunderground v.1.13,2013-02-23 04:05:00,
2013-02-22 23:15:00,34.8,30.8,30.04,South,173,0.0,0.0,85,0.00,,,0.00,Wunderground v.1.13,2013-02-23 04:15:00,
2013-02-22 23:25:00,34.8,30.8,30.04,SE,146,0.0,1.0,85,0.00,,,0.00,Wunderground v.1.13,2013-02-23 04:25:00,
2013-02-22 23:30:00,34.8,30.8,30.04,SE,145,0.0,2.0,85,0.00,,,0.00,Wunderground v.1.13,2013-02-23 04:30:00,
2013-02-22 23:40:00,34.9,30.8,30.04,SE,146,0.0,1.0,85,0.00,,,0.00,Wunderground v.1.13,2013-02-23 04:40:00,
2013-02-22 23:50:00,35.0,30.9,30.03,East,91,0.0,1.0,85,0.00,,,0.00,Wunderground v.1.13,2013-02-23 04:50:00,